Regional Weather Roundup
Issued by NWS Kansas City/Pleasant Hill, MO

Home | Current Version | Previous Version | Text Only | Print | Product List | Glossary On
Versions: 1 2 3 4 5 6 7 8 9 10 11 12 13 14 15 16 17 18 19 20 21 22 23 24 25 26 27 28 29 30 31 32 33 34 35 36 37 38 39 40 41 42 43 44 45 46 47 48 49 50
000
ASUS43 KEAX 251810
RWREAX

WEATHER ROUNDUP FOR EASTERN KANSAS AND NORTHWEST MISSOURI
NATIONAL WEATHER SERVICE KANSAS CITY/PLEASANT HILL MO
1200 PM CST SUN JAN 25 2015

KSZ040-057-103>105-MOZ028-029-037-043-251900-
...KANSAS CITY METROPOLITAN AREA...

CITY           SKY/WX    TMP DP  RH WIND       PRES   REMARKS
K.C. INTL      CLOUDY    37  34  89 N21G32    29.81R WCI  26
6HR MIN TEMP:  36; 6HR MAX TEMP:  43; 6HR PCP:  0.01;

K.C. DOWNTOWN  CLOUDY    40  34  79 NW16G29   29.81R WCI  31
6HR MIN TEMP:  38; 6HR MAX TEMP:  43; 6HR PCP: TRACE;

LEES SUMMIT    CLOUDY    38  33  82 NW18      29.79R WCI  28
6HR MIN TEMP:  37; 6HR MAX TEMP:  43; 6HR PCP:  0.01;

OLATHE - IXD   CLOUDY    37  34  89 NW26G36   29.84R WCI  25
6HR MIN TEMP:  36; 6HR MAX TEMP:  43; 6HR PCP:  0.01;

OLATHE - OJC   CLOUDY    38  34  85 NW20G30   29.81R WCI  28
6HR MIN TEMP:  37; 6HR MAX TEMP:  44; 6HR PCP:  0.01;

LAWRENCE       CLOUDY    38  33  82 N23G32    29.87R WCI  27

$$

MOZ001>008-011>017-020>025-030>033-038>040-044>046-053-054-251900-
...NORTHERN AND CENTRAL MISSOURI...

CITY           SKY/WX    TMP DP  RH WIND       PRES   REMARKS
ST. JOSEPH     CLOUDY    38  34  85 N25G36    29.86R WCI  27
6HR MIN TEMP:  36; 6HR MAX TEMP:  40; 6HR PCP:  0.01;

MOSBY          CLOUDY    37  34  87 NW20      29.80R WCI  27
WHITEMAN AFB   LGT RAIN  38  35  87 NW15G29   29.73R WCI  29
6HR MIN TEMP:  38; 6HR MAX TEMP:  45; 6HR PCP:  0.01;

CLINTON        CLOUDY    39  34  81 NW21G26   29.76S WCI  29
SEDALIA        LGT RAIN  38  34  85 NW18G28   29.72R WCI  28
6HR MIN TEMP:  38; 6HR MAX TEMP:  46; 6HR PCP:  0.02;

WARSAW         NOT AVBL
MARSHALL       MIX PCPN  39  37  93 NW18G29   29.71R WCI  30
CHILLICOTHE      N/A     38  35  89 N13G28    29.77R WCI  30
6HR MIN TEMP:  36; 6HR MAX TEMP:  43; 6HR PCP:  0.09;

MOBERLY        LGT RAIN  41  37  87 N13       29.66R WCI  34
KIRKSVILLE     CLOUDY    35  33  92 N22G28    29.73R WCI  23
6HR MIN TEMP:  35; 6HR MAX TEMP:  42; 6HR PCP:  0.13;


$$

MOZ041-047>049-056>058-063>065-088>090-097-251900-
...EASTERN AND SOUTHERN MISSOURI...

CITY           SKY/WX    TMP DP  RH WIND       PRES   REMARKS
ST. LOUIS INTL LGT RAIN  47  43  86 W9        29.59S FOG
6HR MIN TEMP:  45; 6HR MAX TEMP:  48; 6HR PCP:  0.02;

SPIRIT OF STL  CLOUDY    46  42  86 W10       29.59S
COLUMBIA       LGT RAIN  41  40  96 NW15G22   29.65R FOG     WCI  33
JEFFERSON CITY LGT RAIN  42  39  89 W16       29.66R FOG     WCI  34
MEXICO         CLOUDY   N/A N/A N/A W10       29.63R FOG
HANNIBAL       CLOUDY    39  37  93 N9G16     29.66R FOG     WCI  33
ROLLA          LGT RAIN  42  38  85 W15       29.63R WCI  34
LEBANON        MIX PCPN  41  37  87 W17G26    29.69  WCI  32
OSAGE BEACH    CLOUDY    41  36  81 NW9G16    29.69R
SPRINGFIELD    LGT RAIN  39  35  86 NW24G33   29.75R WCI  28
BRANSON        LGT RAIN  41  39  93 NW13G18   29.74S FOG     WCI  34
NEVADA         CLOUDY    39  32  75 NW22G31   29.82R WCI  29
JOPLIN         CLOUDY    42  31  64 NW23G31   29.84R WCI  33
WEST PLAINS    CLOUDY    48  40  73 W15G23    29.65S

$$

IAZ060-094-KSZ022-034>040-054-083-096-NEZ052-066-093-251900-
...KANSAS...SOUTHEAST NEBRASKA AND IOWA...

CITY           SKY/WX    TMP DP  RH WIND       PRES   REMARKS
TOPEKA         CLOUDY    40  32  73 NW24G37   29.90R WCI  29
6HR MIN TEMP:  39; 6HR MAX TEMP:  44;

MANHATTAN      CLOUDY    44  31  60 N16G29    29.97R
EMPORIA        PTSUNNY   44  31  60 NW31G38   29.90R WCI  34
CHANUTE        CLOUDY    43  32  65 N22G38    29.89R WCI  34
WICHITA        PTSUNNY   51  29  42 NW32G44   29.98R
OMAHA          CLOUDY    39  33  79 N20G26    29.96R WCI  29
LINCOLN        CLOUDY    39  31  72 N22       30.00R WCI  29
FALLS CITY     CLOUDY    37  32  82 N22G30    29.91R WCI  26
LAMONI         LGT SNOW  34  32  92 N24G31    29.83R FOG     WCI  21
DES MOINES     CLOUDY    34  30  85 NE16      29.90R WCI  24

$$




USA.gov is the U.S. government's official web portal to all federal, state and local government web resources and services.